Regional Weather Roundup
Issued by NWS

Home | Current Version | Previous Version | Text Only | Print | Product List | Glossary Off
Versions: 1 2 3 4 5 6 7 8 9 10 11 12 13 14 15 16 17 18 19 20 21 22 23 24 25 26 27 28 29 30 31 32 33 34 35 36 37 38 39 40 41 42 43 44 45 46 47 48 49 50

000
ASUS45 KSLC 222210
RWRUT

UTAH REGIONAL WEATHER ROUNDUP
NATIONAL WEATHER SERVICE SALT LAKE CITY UT
400 PM MDT FRI MAY 22 2015

UTZ001>011-023>025-222300-

NORTHERN UTAH

CITY           SKY/WX    TMP DP  RH WIND       PRES   REMARKS
BRIGHAM CITY   CLOUDY    62  45  55 S9        29.88F
HILL AFB       CLOUDY    58  46  64 E2        29.89F
LOGAN          CLOUDY    61  47  59 W8        29.87S
OGDEN          CLOUDY    60  48  64 NE6       29.88F
PROVO AIRPORT  CLOUDY    57  36  44 CALM      29.90F
SALT LAKE CITY LGT RAIN  58  46  64 E14       29.88S
VERNAL         CLOUDY    59  38  45 S6        29.93S
WENDOVER       CLOUDY    64  43  45 SW3       29.87F
HEBER CITY     CLOUDY    54  41  62 CALM      29.94F
WEST JORDAN    CLOUDY    55  45  67 E10       29.90F

$$

UTZ012>022-026-027-222300-

SOUTHERN/CENTRAL UTAH

CITY           SKY/WX    TMP DP  RH WIND       PRES   REMARKS
BLANDING       PTSUNNY   65  23  20 SE15      29.98F
BRYCE CANYON   CLOUDY    51  27  39 S9G25     29.97R
CEDAR CITY     CLOUDY    54  37  52 S10       29.91R
DELTA          CLOUDY    51  44  79 N16       29.90F
HANKSVILLE     PTSUNNY   72  21  15 S18       29.82F
MILFORD        PTSUNNY   64  37  36 N16G23    29.87F
MOAB/CYNLANDS  MOSUNNY   71  24  17 S25G36    29.78F
PRICE          LGT RAIN  50  39  66 NE21      29.95F
ST GEORGE      CLOUDY    64  36  34 S16       29.90R
KANAB          CLOUDY    52  39  62 S16       30.00R

$$

REGIONAL REPORTS     COLORADO/ARIZONA

CITY           SKY/WX    TMP DP  RH WIND       PRES   REMARKS
CRAIG, CO      TSTM      47  39  74 W12G32    30.01R
GRAND JUNCTION PTSUNNY   64  36  35 NW6       29.88R
RIFLE          PTSUNNY   61  37  41 SW12      29.94S
MONTROSE       PTSUNNY   69  28  21 S8        29.91S
CORTEZ         TSTM      56  43  61 NW6       29.95F
PAGE, AZ       NOT AVBL
GRAND CANYON   NOT AVBL
KINGMAN        PTSUNNY   66  35  31 SW21G31   29.89S
FLAGSTAFF      LGT RAIN  47  35  63 S13G24    29.99F

$$

REGIONAL REPORTS    NEVADA/IDAHO/WYOMING

CITY           SKY/WX    TMP DP  RH WIND       PRES   REMARKS
LAS VEGAS, NV  PTSUNNY   73  37  27 W3        29.78F
ELY            CLOUDY    58  33  39 SW5       29.92F
ELKO           CLOUDY    59  41  51 S16       29.90S
POCATELLO, ID  MOSUNNY   65  40  39 W8        29.86F
BURLEY         CLOUDY    57  46  66 N7        29.88R
EVANSTON, WY   LGT RAIN  46  39  76 NW5       29.97R
ROCK SPRINGS   CLOUDY    49  39  68 SW5       29.96F
KEMMERER       CLOUDY    46  37  71 W13       29.99S

$$


USA.gov is the U.S. government's official web portal to all federal, state and local government web resources and services.